Location: Ay?beleni
(36.6500°N, 30.3000°E)
Time: 09:04:13
(UTC+00:00)

GPS 2-04 Rocket1 - Pass Details

Date: 09 April 2020
Orbit: 419 x 548 km, 35.6° (Epoch: 31 May)

Event Time Altitude Azimuth Distance (km) Brightness Sun altitude
Rises 18:22:05 0° 245° (WSW) 2,620 6.8 -22.2°
Reaches altitude 10° 18:24:19 10° 240° (WSW) 1,754 5.7 -22.6°
Enters shadow 18:27:00 36° 215° (SW) 854 3.7 -23.1°
